Flagstaff, AZ

12:37 AM MST on May 25, 2018 (GMT -0700)
Flagstaff Pulliam

Weather History for KFLG - January, 2014

Change the Weather History Date:

Friday, January 10, 2014

  Actual Average Record
Temperature  
Mean Temperature 38 °F 30 °F  
Max Temperature 50 °F 42 °F 65 °F (1990)
Min Temperature 26 °F 17 °F -15 °F (1937)
Degree Days  
Heating Degree Days 27 35  
Month to date heating degree days 308 356  
Since 1 July heating degree days 3221 3184  
Cooling Degree Days 0 0  
Month to date cooling degree days 0 0  
Year to date cooling degree days 0 0  
Moisture  
Dew Point 18 °F    
Average Humidity 44    
Maximum Humidity 59    
Minimum Humidity 29    
Precipitation  
Precipitation 0.00 in 0.08 in 1.61 in (1911)
Month to date precipitation 0.00 0.72  
Year to date precipitation 0.00 0.72  
Snow  
Snow 0.00 in 0.70 in 15.10 in (1949)
Month to date snowfall 0.0 7.0  
Since 1 July snowfall 29.9 36.1  
Snow Depth 0.00 in    
Sea Level Pressure  
Sea Level Pressure 30.05 in    
Wind  
Wind Speed 6 mph (WSW)    
Max Wind Speed 14 mph    
Max Gust Speed 22 mph    
Visibility 10 miles    
Events      
T = Trace of Precipitation, MM = Missing Value Source: NWS Daily Summary

Daily Weather History Graph

Daily Weather History Graph

Search for Another Location

Airport or City:

Astronomy

Jan. 10, 2014 Rise Set
Actual Time 7:35 AM MST 5:33 PM MST
Civil Twilight 7:07 AM MST 6:01 PM MST
Nautical Twilight 6:36 AM MST 6:32 PM MST
Astronomical Twilight 6:05 AM MST 7:03 PM MST
Moon 1:36 PM MST (1/10) 2:50 AM MST (1/10)
Length of Visible Light 10h 53m
Length of Day
9h 57m
Waxing Gibbous, 75% of the Moon is Illuminated
Jan 10
Waxing Gibbous
Jan 15
Full
Jan 23
Last Quarter
Jan 30
New
Feb 6
First Quarter

Hourly Weather History & Observations

Time (MST) Temp. Windchill Dew Point Humidity Pressure Visibility Wind Dir Wind Speed Gust Speed Precip Events Conditions
12:57 AM 32.0 °F 27.5 °F 12.9 °F 45% 29.96 in 10.0 mi West 4.6 mph - N/A   Clear
1:57 AM 28.0 °F 21.7 °F 14.0 °F 56% 29.97 in 10.0 mi West 5.8 mph - N/A   Clear
2:57 AM 30.9 °F 26.2 °F 15.1 °F 52% 29.98 in 10.0 mi West 4.6 mph - N/A   Clear
3:57 AM 30.9 °F 24.3 °F 16.0 °F 54% 29.98 in 10.0 mi WNW 6.9 mph - N/A   Clear
4:57 AM 30.9 °F 27.5 °F 16.0 °F 54% 29.99 in 10.0 mi South 3.5 mph - N/A   Clear
5:57 AM 30.0 °F 26.5 °F 16.0 °F 56% 30.03 in 10.0 mi Variable 3.5 mph - N/A   Clear
6:57 AM 30.0 °F 25.2 °F 15.1 °F 54% 30.06 in 10.0 mi WSW 4.6 mph - N/A   Clear
7:57 AM 30.0 °F 23.2 °F 16.0 °F 56% 30.05 in 10.0 mi WSW 6.9 mph - N/A   Clear
8:57 AM 33.1 °F 25.5 °F 19.0 °F 56% 30.05 in 10.0 mi SW 9.2 mph - N/A   Clear
9:57 AM 41.0 °F 36.4 °F 19.9 °F 43% 30.08 in 10.0 mi Variable 6.9 mph - N/A   Clear
10:57 AM 45.0 °F 40.1 °F 19.0 °F 36% 30.07 in 10.0 mi West 9.2 mph - N/A   Clear
11:57 AM 46.9 °F - 19.0 °F 33% 30.03 in 10.0 mi WNW 8.1 mph 19.6 mph N/A   Clear
12:57 PM 48.0 °F - 19.0 °F 32% 29.99 in 10.0 mi WSW 10.4 mph - N/A   Clear
1:57 PM 48.0 °F - 18.0 °F 30% 30.01 in 10.0 mi Variable 6.9 mph 16.1 mph N/A   Clear
2:57 PM 50.0 °F - 19.0 °F 29% 29.99 in 10.0 mi North - - N/A   Clear
3:57 PM 48.9 °F - 18.0 °F 29% 30.02 in 10.0 mi Variable 4.6 mph - N/A   Clear
4:57 PM 46.9 °F - 18.0 °F 32% 30.04 in 10.0 mi Variable 4.6 mph - N/A   Clear
5:57 PM 42.1 °F 38.4 °F 18.0 °F 38% 30.08 in 10.0 mi Variable 5.8 mph - N/A   Clear
6:57 PM 35.1 °F 29.3 °F 19.0 °F 52% 30.14 in 10.0 mi West 6.9 mph - N/A   Clear
7:57 PM 39.0 °F 36.8 °F 19.9 °F 46% 30.14 in 10.0 mi Variable 3.5 mph - N/A   Clear
8:57 PM 39.0 °F - 19.9 °F 46% 30.14 in 10.0 mi Calm Calm - N/A   Clear
9:57 PM 39.0 °F 35.7 °F 19.9 °F 46% 30.12 in 10.0 mi Variable 4.6 mph - N/A   Clear
10:57 PM 32.0 °F 28.7 °F 19.9 °F 61% 30.14 in 10.0 mi WSW 3.5 mph - N/A   Clear
11:57 PM 27.0 °F 20.5 °F 19.0 °F 72% 30.16 in 10.0 mi Variable 5.8 mph - N/A   Clear